Regional Weather Roundup
Issued by NWS Sioux Falls, SD

Home | Current Version | Previous Version | Graphics & Text | Print | Product List | Glossary On
Versions: 1 2 3 4 5 6 7 8 9 10 11 12 13 14 15 16 17 18 19 20 21 22 23 24 25 26 27 28 29 30 31 32 33 34 35 36 37 38 39 40 41 42 43 44 45 46 47 48 49 50
000
ASUS43 KFSD 230510
RWRFSD

WEATHER ROUNDUP FOR SE SOUTH DAKOTA/SW MINNESOTA/NW IOWA
NATIONAL WEATHER SERVICE SIOUX FALLS SD
1200 AM CDT WED APR 23 2014

NOTE: "FAIR" INDICATES FEW OR NO CLOUDS BELOW 12,000 FEET WITH NO
SIGNIFICANT WEATHER AND OR OBSTRUCTIONS TO VISIBILITY.


SDZ038>040-050-052>070-230600-
SOUTHEAST SOUTH DAKOTA

CITY           SKY/WX    TMP DP  RH WIND       PRES   REMARKS
CHAMBERLAIN      N/A     58  33  39 SE25G35   29.77F
HURON          CLOUDY    58  33  39 SE17G25   29.83F
MADISON        MOCLDY    54  32  43 SE15      29.93S
MITCHELL       MOCLDY    58  34  40 SE22      29.86F
SIOUX FALLS    CLOUDY    56  34  43 SE15G26   29.93F
WINNER         FAIR      63  32  31 SE20      29.75F
YANKTON        MOCLDY    57  34  41 E13       29.91F
$$

MNZ071-072-080-081-089-090-097-098-230600-
SOUTHWEST MINNESOTA

CITY           SKY/WX    TMP DP  RH WIND       PRES   REMARKS
FAIRMONT       CLOUDY    50  34  53 SE10      30.06F
JACKSON        CLOUDY    52  32  46 E8        30.04S
LUVERNE        CLOUDY    55  34  44 SE15      29.97F
MARSHALL       CLOUDY    54  32  43 SE15      29.99R
MONTEVIDEO     CLOUDY    52  34  50 S16       30.00F
PIPESTONE      CLOUDY    55  34  44 SE12      29.96F
REDWOOD FALLS  CLOUDY    52  30  43 SE9       30.02F
TRACY          CLOUDY    53  33  46 SE12      30.01S
WINDOM         CLOUDY    52  32  46 E10       30.03S
WORTHINGTON    CLOUDY    54  32  43 E15       30.03F
$$

IAZ001>003-012>014-020>022-031-032-NEZ013-014-SDZ071-230600-
NORTHWEST IOWA

CITY           SKY/WX    TMP DP  RH WIND       PRES   REMARKS
CHEROKEE       CLOUDY    55  35  47 SE9       30.01S
DENISON        CLOUDY    55  34  44 SE9       29.99F
ESTHERVILLE    CLOUDY    49  40  71 SE12      30.03F
LE MARS        CLOUDY    57  36  44 SE12G20   29.98F
ORANGE CITY    CLOUDY    55  36  47 SE8       29.98F
SHELDON        CLOUDY    55  36  47 SE14      29.98F
SIOUX CITY     CLOUDY    59  34  39 SE14      29.95F
SPENCER        CLOUDY    55  36  48 SE12      30.02S
STORM LAKE     CLOUDY    52  37  58 SE10      30.03R
$$

ABBREVIATIONS USED IN REMARKS
   TC - TEMPERATURE IN CELSIUS
  WCI - WIND CHILL INDEX
   HX - HEAT INDEX
  VSB - VISIBILITY




USA.gov is the U.S. government's official web portal to all federal, state and local government web resources and services.